User: anonymous   Login
Location: Big Sable Point
(44.0575°N, 86.5149°W)
Time: 21:55:47
(UTC-04:00)
Language:

Tiangong 2 - Orbit

View from above orbital plane
View from above orbital plane
View from above satellite
View from above satellite

Ground track
Ground track

The orbit data is extracted from the following two-line orbital elements,

1 41765U 16057A   19083.86475694  .00003562  00000-0  45687-4 0  9992
2 41765  42.7837 109.7851 0007290  31.8042 333.8595 15.61006303143866
Epoch (UTC): 24 March 2019 20:45:15
Eccentricity: 0.0007290
inclination: 42.7837°
perigee height: 380 km
apogee height: 389 km
right ascension of ascending node: 109.7851°
argument of perigee: 31.8042°
revolutions per day: 15.61006303
mean anomaly at epoch: 333.8595°
orbit number at epoch: 14386

The dashed part of the orbit path shows where the satellite is in the earth's shadow,  

DLR